Погода в Варнавино

Россия / Нижегородская область     57°24′06″N   45°05′16″E
темп.,
°C
ветер,
м/с
пор.,
м/с
влажн.,
%
обл.,
%
осадки,
мм/ч
давл.,
гПа
погр.,
м
16 апреля, пт
пт1600:00+5св5128536 0.0 1024530
03:00+5св5138665 0.0 1025524
06:00+4всв5128499 0.0 1026504
09:00+6всв697671 0.0 1027564
12:00+9всв696453 0.0 1027822
15:00+10всв585646 0.0 1028923
18:00+8всв496549 0.0 1028611
21:00+4всв412785 0.0 1029333
17 апреля, сб
сб1700:00+2всв311845 0.0 1030254
03:00+1св39855 0.0 1030188
06:00+1всв310805 0.0 1030246
09:00+7всв57544 0.0 1030620
12:00+10всв56432 0.0 10291096
15:00+11всв45420 0.0 10281265
18:00+9всв36575 0.0 1028202
21:00+4всв34740 0.0 102965
18 апреля, вс
вс1800:00+3всв25820 0.0 102880
03:00+2св24880 0.0 102975
06:00+2св38875 0.0 1029207
09:00+8всв476038 0.0 1028674
12:00+11всв575189 0.0 10281462
15:00+11всв5753100 0.0 10281630
18:00+7всв6971100 0.0 1029812
21:00+5всв41069100 0.0 1030669
19 апреля, пн
пн1900:00+3всв41159100 0.0 1031568
03:00+2всв51165100 0.0 1032499
06:00+1всв5126734 0.0 1033499
09:00+5в69480 0.0 1033919
12:00+8в68361 0.0 10331645
15:00+9в68320 0.0 10331703
18:00+7в59400 0.0 10331125
21:00+3в412530 0.0 1033371
20 апреля, вт
вт2000:00+1в411590 0.0 1033315
03:00−1в311630 0.0 1033291
06:000в412552 0.0 1033419
09:00+6вюв610430 0.0 1031935
12:00+10вюв79397 0.0 10291454
15:00+11вюв7103389 0.0 10271577
18:00+9вюв61140100 0.0 10261024
21:00+6вюв61445100 0.0 1025724